START_TIME,STEP,MOV.,M15,t_acc.,M20,t_acc.
1989-08-26T15:00:44.550 ,1,0,0.,24.0,0.,24.0
1989-08-26T15:01:08.550 ,0,1,0.,24.0,0.,24.0
1989-08-26T15:01:32.550 ,0,0,0.,24.0,0.,24.0
1989-08-26T15:01:56.550 ,0,1,0.,24.0,0.,24.0
1989-08-26T15:02:20.550 ,0,0,0.,24.0,0.,24.0
1989-08-26T15:02:44.550 ,1,1,0.,24.0,0.,24.0
1989-08-26T15:03:08.550 ,1,0,0.,24.0,0.,24.0
1989-08-26T15:03:32.550 ,2,1,0.,24.0,0.,24.0
1989-08-26T15:03:56.550 ,2,0,0.,24.0,0.,24.0
1989-08-26T15:04:20.550 ,3,1,0.,24.0,0.,24.0
1989-08-26T15:04:44.550 ,3,0,0.,24.0,0.,24.0
1989-08-26T15:05:08.550 ,4,1,0.,24.0,0.,24.0
1989-08-26T15:05:32.550 ,4,0,0.,24.0,0.,24.0
1989-08-26T15:05:56.550 ,5,1,0.,24.0,0.,24.0
1989-08-26T15:06:20.550 ,5,1,,0,,0
1989-08-26T15:06:59.550 ,0,0,0.,24.0,0.,24.0
1989-08-26T15:07:08.550 ,0,0,0.,24.0,0.,24.0
1989-08-26T15:07:32.550 ,7,1,0.,24.0,0.,24.0
1989-08-26T15:07:56.550 ,7,0,0.,24.0,0.,24.0
1989-08-26T15:08:20.550 ,7,1,0.,24.0,0.,24.0
1989-08-26T15:08:44.550 ,7,0,0.,24.0,0.,24.0
1989-08-26T15:09:08.550 ,6,1,0.,24.0,0.,24.0
1989-08-26T15:09:32.550 ,6,0,0.,24.0,0.,24.0
1989-08-26T15:09:56.550 ,5,1,0.,24.0,0.,24.0
1989-08-26T15:10:20.550 ,5,0,0.,24.0,0.,24.0
1989-08-26T15:10:44.550 ,4,1,0.,24.0,0.,24.0
1989-08-26T15:11:08.550 ,4,0,0.,24.0,0.,24.0
1989-08-26T15:11:32.550 ,3,1,0.,24.0,0.,24.0
1989-08-26T15:11:56.550 ,3,0,0.,24.0,0.,24.0
1989-08-26T15:12:20.550 ,2,1,0.,24.0,0.,24.0
1989-08-26T15:12:44.550 ,2,0,0.,24.0,0.,24.0
1989-08-26T15:13:08.550 ,1,1,0.,24.0,0.,24.0
1989-08-26T15:13:32.550 ,1,0,0.,24.0,0.,24.0
1989-08-26T15:13:56.550 ,0,1,0.,24.0,0.,24.0
1989-08-26T15:14:20.550 ,0,0,0.,24.0,0.,24.0
1989-08-26T15:14:44.550 ,0,1,0.,24.0,0.,24.0
1989-08-26T15:15:08.550 ,0,0,0.,24.0,0.,24.0
1989-08-26T15:15:32.550 ,1,1,0.,24.0,0.,24.0
1989-08-26T15:15:56.550 ,1,0,0.,24.0,0.,24.0
1989-08-26T15:16:20.550 ,2,1,0.,24.0,0.,24.0
1989-08-26T15:16:44.550 ,2,0,0.,24.0,0.,24.0
1989-08-26T15:17:08.550 ,3,1,0.,24.0,0.,24.0
1989-08-26T15:17:32.550 ,3,0,0.,24.0,0.,24.0
1989-08-26T15:17:56.550 ,4,1,0.,24.0,0.,24.0
1989-08-26T15:18:20.550 ,4,0,0.,24.0,0.,24.0
1989-08-26T15:18:44.550 ,5,1,0.,24.0,0.,24.0
1989-08-26T15:19:08.550 ,5,0,0.,24.0,0.,24.0
1989-08-26T15:19:32.550 ,6,1,0.,24.0,0.,24.0
1989-08-26T15:19:56.550 ,6,0,0.,24.0,0.,24.0
1989-08-26T15:20:20.550 ,7,1,0.,24.0,0.,24.0
1989-08-26T15:20:44.550 ,7,0,0.,24.0,0.,24.0
1989-08-26T15:21:08.550 ,7,1,0.,24.0,0.,24.0
1989-08-26T15:21:32.550 ,7,0,0.,24.0,0.,24.0
1989-08-26T15:21:56.550 ,6,1,0.,24.0,0.,24.0
1989-08-26T15:22:20.550 ,6,0,0.,24.0,0.,24.0
1989-08-26T15:22:44.550 ,5,1,0.,24.0,0.,24.0
1989-08-26T15:23:08.550 ,5,0,0.,24.0,0.,24.0
1989-08-26T15:23:32.550 ,4,1,0.,24.0,0.,24.0
1989-08-26T15:23:56.550 ,4,0,0.,24.0,0.,24.0
1989-08-26T15:24:20.550 ,3,1,0.,24.0,0.,24.0
1989-08-26T15:24:44.550 ,3,0,0.,24.0,0.,24.0
1989-08-26T15:25:08.550 ,2,1,0.,24.0,0.,24.0
1989-08-26T15:25:32.550 ,2,0,0.,24.0,0.,24.0
1989-08-26T15:25:56.550 ,1,1,0.,24.0,0.,24.0
1989-08-26T15:26:20.550 ,1,0,0.,24.0,0.,24.0
1989-08-26T15:26:44.550 ,0,1,0.,24.0,0.,24.0
1989-08-26T15:27:08.550 ,0,0,0.,24.0,0.,24.0
1989-08-26T15:27:32.550 ,0,1,0.,24.0,0.,24.0
1989-08-26T15:27:56.550 ,0,0,0.,24.0,0.,24.0
1989-08-26T15:28:20.550 ,1,1,0.,24.0,0.,24.0
1989-08-26T15:28:44.550 ,1,0,0.,24.0,0.,24.0
1989-08-26T15:29:08.550 ,2,1,0.,24.0,0.,24.0
1989-08-26T15:29:32.550 ,2,0,0.,24.0,0.,24.0
1989-08-26T15:29:56.550 ,3,1,0.,24.0,0.,24.0
1989-08-26T15:30:20.550 ,3,0,0.,24.0,0.,24.0
1989-08-26T15:30:44.550 ,4,1,0.,24.0,0.,24.0
1989-08-26T15:31:08.550 ,4,0,0.,24.0,0.,24.0
1989-08-26T15:31:32.550 ,5,1,0.,24.0,0.,24.0
1989-08-26T15:31:56.550 ,5,0,0.,24.0,0.,24.0
1989-08-26T15:32:20.550 ,6,1,0.,24.0,0.,24.0
1989-08-26T15:32:44.550 ,6,0,0.,24.0,0.,24.0
1989-08-26T15:33:08.550 ,7,1,0.,24.0,0.,24.0
1989-08-26T15:33:32.550 ,7,0,0.,24.0,0.,24.0
1989-08-26T15:33:56.550 ,7,1,0.,24.0,0.,24.0
1989-08-26T15:34:20.550 ,7,0,0.,24.0,0.,24.0
1989-08-26T15:34:44.550 ,6,1,0.,24.0,0.,24.0
1989-08-26T15:35:08.550 ,6,0,0.,24.0,0.,24.0
1989-08-26T15:35:32.540 ,5,1,0.,24.0,0.,24.0
1989-08-26T15:35:56.540 ,5,0,0.,24.0,0.,24.0
1989-08-26T15:36:20.540 ,4,1,0.,24.0,0.,24.0
1989-08-26T15:36:44.540 ,4,0,0.,24.0,0.,24.0
1989-08-26T15:37:08.540 ,3,1,0.,24.0,0.,24.0
1989-08-26T15:37:32.540 ,3,0,0.,24.0,0.,24.0
1989-08-26T15:37:56.540 ,2,1,0.,24.0,0.,24.0
1989-08-26T15:38:20.540 ,2,0,0.,24.0,0.,24.0
1989-08-26T15:38:44.540 ,1,1,0.,24.0,0.,24.0
1989-08-26T15:39:08.540 ,1,0,0.,24.0,0.,24.0
1989-08-26T15:39:32.540 ,0,1,0.,24.0,0.,24.0
1989-08-26T15:39:56.540 ,0,0,0.,24.0,0.,24.0
1989-08-26T15:40:20.540 ,0,1,0.,24.0,0.,24.0
1989-08-26T15:40:44.540 ,0,0,0.,24.0,0.,24.0
1989-08-26T15:41:08.540 ,1,1,0.,24.0,0.,24.0
1989-08-26T15:41:32.540 ,1,0,0.,24.0,0.,24.0
1989-08-26T15:41:56.540 ,2,1,0.,24.0,0.,24.0
1989-08-26T15:42:20.540 ,2,0,0.,24.0,0.,24.0
1989-08-26T15:42:44.540 ,3,1,0.,24.0,0.,24.0
1989-08-26T15:43:08.540 ,3,0,0.,24.0,0.,24.0
1989-08-26T15:43:32.540 ,4,1,0.,24.0,0.,24.0
1989-08-26T15:43:56.540 ,4,0,0.,24.0,0.,24.0
1989-08-26T15:44:20.540 ,5,1,0.,24.0,0.,24.0
1989-08-26T15:44:44.540 ,5,0,0.,24.0,0.,24.0
1989-08-26T15:45:08.540 ,6,1,0.,24.0,0.,24.0
1989-08-26T15:45:32.540 ,6,0,0.,24.0,0.,24.0
1989-08-26T15:45:56.540 ,7,1,0.,24.0,0.,24.0
1989-08-26T15:46:20.540 ,7,0,0.,24.0,0.,24.0
1989-08-26T15:46:44.540 ,7,1,0.,24.0,0.,24.0
1989-08-26T15:47:08.540 ,7,0,0.,24.0,0.,24.0
1989-08-26T15:47:32.540 ,6,1,0.,24.0,0.,24.0
1989-08-26T15:47:56.540 ,6,0,0.,24.0,0.,24.0
1989-08-26T15:48:20.540 ,5,1,0.,24.0,0.,24.0
1989-08-26T15:48:44.540 ,5,0,0.,24.0,0.,24.0
1989-08-26T15:49:08.540 ,4,1,0.,24.0,0.,24.0
1989-08-26T15:49:32.540 ,4,0,0.,24.0,0.,24.0
1989-08-26T15:49:56.540 ,3,1,0.,24.0,0.,24.0
1989-08-26T15:50:20.540 ,3,0,0.,24.0,0.,24.0
1989-08-26T15:50:44.540 ,2,1,0.,24.0,0.,24.0
1989-08-26T15:51:08.540 ,2,0,0.,24.0,0.,24.0
1989-08-26T15:51:32.540 ,1,1,0.,24.0,0.,24.0
1989-08-26T15:51:56.540 ,1,0,0.,24.0,0.,24.0
1989-08-26T15:52:20.540 ,0,1,0.,24.0,0.,24.0
1989-08-26T15:52:44.540 ,0,0,0.,24.0,0.,24.0
1989-08-26T15:53:08.540 ,0,1,0.,24.0,0.,24.0
1989-08-26T15:53:32.540 ,0,0,0.,24.0,0.,24.0
1989-08-26T15:53:56.540 ,1,1,0.,24.0,0.,24.0
1989-08-26T15:54:20.540 ,1,0,0.,24.0,0.,24.0
1989-08-26T15:54:44.540 ,2,1,0.,24.0,0.,24.0
1989-08-26T15:55:08.540 ,2,0,0.,24.0,0.,24.0
1989-08-26T15:55:32.540 ,3,1,0.,24.0,0.,24.0
1989-08-26T15:55:56.540 ,3,0,0.,24.0,0.,24.0
1989-08-26T15:56:20.540 ,4,1,0.,24.0,0.,24.0
1989-08-26T15:56:44.540 ,4,0,0.,24.0,0.,24.0
1989-08-26T15:57:08.540 ,5,1,0.,24.0,0.,24.0
1989-08-26T15:57:32.540 ,5,0,0.,24.0,0.,24.0
1989-08-26T15:57:56.540 ,6,1,0.,24.0,0.,24.0
1989-08-26T15:58:20.540 ,6,0,0.,24.0,0.,24.0
1989-08-26T15:58:44.540 ,7,1,0.,24.0,0.,24.0
1989-08-26T15:59:08.540 ,7,0,0.,24.0,0.,24.0
1989-08-26T15:59:32.540 ,7,1,0.,24.0,0.,24.0
1989-08-26T15:59:56.540 ,7,0,0.,24.0,0.,24.0
1989-08-26T16:00:20.540 ,6,1,0.,24.0,0.,24.0
1989-08-26T16:00:44.540 ,6,0,0.,24.0,0.,24.0
1989-08-26T16:01:08.540 ,5,1,0.,24.0,0.,24.0
1989-08-26T16:01:32.540 ,5,0,0.,24.0,0.,24.0
1989-08-26T16:01:56.540 ,4,1,0.,24.0,0.,24.0
1989-08-26T16:02:20.540 ,4,0,0.,24.0,0.,24.0
1989-08-26T16:02:44.540 ,3,1,0.,24.0,0.,24.0
1989-08-26T16:03:08.540 ,3,0,0.,24.0,0.,24.0
1989-08-26T16:03:32.540 ,2,1,0.,24.0,0.,24.0
1989-08-26T16:03:56.540 ,2,0,0.,24.0,0.,24.0
1989-08-26T16:04:20.540 ,1,1,0.,24.0,0.,24.0
1989-08-26T16:04:44.540 ,1,0,0.,24.0,0.,24.0
1989-08-26T16:05:08.540 ,0,1,0.,24.0,0.,24.0
1989-08-26T16:05:32.540 ,0,0,0.,24.0,0.,24.0
1989-08-26T16:05:56.540 ,0,1,0.,24.0,0.,24.0
1989-08-26T16:06:20.540 ,0,0,0.,24.0,0.,24.0
1989-08-26T16:06:44.540 ,1,1,0.,24.0,0.,24.0
1989-08-26T16:07:08.540 ,1,0,0.,24.0,0.,24.0
1989-08-26T16:07:32.540 ,2,1,0.,24.0,0.,24.0
1989-08-26T16:07:56.540 ,2,0,0.,24.0,0.,24.0
1989-08-26T16:08:20.540 ,3,1,0.,24.0,0.,24.0
1989-08-26T16:08:44.540 ,3,0,0.,24.0,0.,24.0
1989-08-26T16:09:08.540 ,4,1,0.,24.0,0.,24.0
1989-08-26T16:09:32.540 ,4,0,0.,24.0,0.,24.0
1989-08-26T16:09:56.540 ,5,1,0.,24.0,0.,24.0
1989-08-26T16:10:20.540 ,5,0,0.,24.0,0.,24.0
1989-08-26T16:10:44.540 ,6,1,0.,24.0,0.,24.0
1989-08-26T16:11:08.540 ,6,0,0.,24.0,0.,24.0
1989-08-26T16:11:32.540 ,7,1,0.,24.0,0.,24.0
1989-08-26T16:11:56.540 ,7,0,0.,24.0,0.,24.0
1989-08-26T16:12:20.540 ,7,1,0.,24.0,0.,24.0
1989-08-26T16:12:44.540 ,7,0,0.,24.0,0.,24.0
1989-08-26T16:13:08.540 ,6,1,0.,24.0,0.,24.0
1989-08-26T16:13:32.540 ,6,0,0.,24.0,0.,24.0
1989-08-26T16:13:56.540 ,5,1,0.,24.0,0.,24.0
1989-08-26T16:14:20.540 ,5,0,0.,24.0,0.,24.0
1989-08-26T16:14:44.540 ,4,1,0.,24.0,0.,24.0
1989-08-26T16:15:08.540 ,4,0,0.,24.0,0.,24.0
1989-08-26T16:15:32.540 ,3,1,0.,24.0,0.,24.0
1989-08-26T16:15:56.540 ,3,0,0.,24.0,0.,24.0
1989-08-26T16:16:20.540 ,2,1,0.,24.0,0.,24.0
1989-08-26T16:16:44.540 ,2,0,0.,24.0,0.,24.0
1989-08-26T16:17:08.540 ,1,1,0.,24.0,0.,24.0
1989-08-26T16:17:32.540 ,1,0,0.,24.0,0.,24.0
1989-08-26T16:17:56.540 ,0,1,0.,24.0,0.,24.0
1989-08-26T16:18:20.540 ,0,0,0.,24.0,0.,24.0
1989-08-26T16:18:44.540 ,0,1,0.,24.0,0.,24.0
1989-08-26T16:19:08.540 ,0,0,0.,24.0,0.,24.0
1989-08-26T16:19:32.540 ,1,1,0.,24.0,0.,24.0
1989-08-26T16:19:56.540 ,1,0,0.,24.0,0.,24.0
1989-08-26T16:20:20.540 ,2,1,0.,24.0,0.,24.0
1989-08-26T16:20:44.540 ,2,0,0.,24.0,0.,24.0
1989-08-26T16:21:08.540 ,3,1,0.,24.0,0.,24.0
1989-08-26T16:21:32.540 ,3,0,0.,24.0,0.,24.0
1989-08-26T16:21:56.540 ,4,1,0.,24.0,0.,24.0
1989-08-26T16:22:20.540 ,4,0,0.,24.0,0.,24.0
1989-08-26T16:22:44.540 ,5,1,0.,24.0,0.,24.0
1989-08-26T16:23:08.540 ,5,0,0.,24.0,0.,24.0
1989-08-26T16:23:32.540 ,6,1,0.,24.0,0.,24.0
1989-08-26T16:23:56.540 ,6,0,0.,24.0,0.,24.0
1989-08-26T16:24:20.540 ,7,1,0.,24.0,0.,24.0
1989-08-26T16:24:44.540 ,7,0,0.,24.0,0.,24.0
1989-08-26T16:25:08.540 ,7,1,0.,24.0,0.,24.0
1989-08-26T16:25:32.540 ,7,0,0.,24.0,0.,24.0
1989-08-26T16:25:56.540 ,6,1,0.,24.0,0.,24.0
1989-08-26T16:26:20.540 ,6,0,0.,24.0,0.,24.0
1989-08-26T16:26:44.540 ,5,1,0.,24.0,0.,24.0
1989-08-26T16:27:08.540 ,5,0,0.,24.0,0.,24.0
1989-08-26T16:27:32.540 ,4,1,0.,24.0,0.,24.0
1989-08-26T16:27:56.540 ,4,0,0.,24.0,0.,24.0
1989-08-26T16:28:20.540 ,3,1,0.,24.0,0.,24.0
1989-08-26T16:28:44.540 ,3,0,0.,24.0,0.,24.0
1989-08-26T16:29:08.540 ,2,1,0.,24.0,0.,24.0
1989-08-26T16:29:32.540 ,2,0,0.,24.0,0.,24.0
1989-08-26T16:29:56.540 ,1,1,0.,24.0,0.,24.0
1989-08-26T16:30:20.540 ,1,0,0.,24.0,0.,24.0
1989-08-26T16:30:44.540 ,0,1,0.,24.0,0.,24.0
1989-08-26T16:31:08.540 ,0,0,0.,24.0,0.,24.0
1989-08-26T16:31:32.540 ,0,1,0.,24.0,0.,24.0
1989-08-26T16:31:56.540 ,0,0,0.,24.0,0.,24.0
1989-08-26T16:32:20.540 ,1,1,0.,24.0,0.,24.0
1989-08-26T16:32:44.540 ,1,0,0.,24.0,0.,24.0
1989-08-26T16:33:08.540 ,2,1,0.,24.0,0.,24.0
1989-08-26T16:33:32.540 ,2,0,0.,24.0,0.,24.0
1989-08-26T16:33:56.540 ,3,1,0.,24.0,0.,24.0
1989-08-26T16:34:20.540 ,3,0,0.,24.0,0.,24.0
1989-08-26T16:34:44.540 ,4,1,0.,24.0,0.,24.0
1989-08-26T16:35:08.540 ,4,0,0.,24.0,0.,24.0
1989-08-26T16:35:32.540 ,5,1,0.,24.0,0.,24.0
1989-08-26T16:35:56.540 ,5,0,0.,24.0,0.,24.0
1989-08-26T16:36:20.540 ,6,1,0.,24.0,0.,24.0
1989-08-26T16:36:44.540 ,6,0,0.,24.0,0.,24.0
1989-08-26T16:37:08.540 ,7,1,0.,24.0,0.,24.0
1989-08-26T16:37:32.540 ,7,0,0.,24.0,0.,24.0
1989-08-26T16:37:56.540 ,7,1,0.,24.0,0.,24.0
1989-08-26T16:38:20.540 ,7,0,0.,24.0,0.,24.0
1989-08-26T16:38:44.540 ,6,1,0.,24.0,0.,24.0
1989-08-26T16:39:08.540 ,6,0,0.,24.0,0.,24.0
1989-08-26T16:39:32.540 ,5,1,0.,24.0,0.,24.0
1989-08-26T16:39:56.540 ,5,0,0.,24.0,0.,24.0
1989-08-26T16:40:20.540 ,4,1,0.,24.0,0.,24.0
1989-08-26T16:40:44.540 ,4,0,0.,24.0,0.,24.0
1989-08-26T16:41:08.540 ,3,1,0.,24.0,0.,24.0
1989-08-26T16:41:32.540 ,3,0,0.,24.0,0.,24.0
1989-08-26T16:41:56.540 ,2,1,0.,24.0,0.,24.0
1989-08-26T16:42:20.540 ,2,0,0.,24.0,0.,24.0
1989-08-26T16:42:44.540 ,1,1,0.,24.0,0.,24.0
1989-08-26T16:43:08.540 ,1,0,0.,24.0,0.,24.0
1989-08-26T16:43:32.540 ,0,1,0.,24.0,0.,24.0
1989-08-26T16:43:56.540 ,0,0,0.,24.0,0.,24.0
1989-08-26T16:44:20.540 ,0,1,0.,24.0,0.,24.0
1989-08-26T16:44:44.540 ,0,0,0.,24.0,0.,24.0
1989-08-26T16:45:08.540 ,1,1,0.,24.0,0.,24.0
1989-08-26T16:45:32.540 ,1,0,0.,24.0,0.,24.0
1989-08-26T16:45:56.540 ,2,1,0.,24.0,0.,24.0
1989-08-26T16:46:20.540 ,2,0,0.,24.0,0.,24.0
1989-08-26T16:46:44.540 ,3,1,0.,24.0,0.,24.0
1989-08-26T16:47:08.540 ,3,0,0.,24.0,0.,24.0
1989-08-26T16:47:32.540 ,4,1,0.,24.0,0.,24.0
1989-08-26T16:47:56.540 ,4,0,0.,24.0,0.,24.0
1989-08-26T16:48:20.540 ,5,1,0.,24.0,0.,24.0
1989-08-26T16:48:44.540 ,5,0,0.,24.0,0.,24.0
1989-08-26T16:49:08.540 ,6,1,0.,24.0,0.,24.0
1989-08-26T16:49:32.540 ,6,0,0.,24.0,0.,24.0
1989-08-26T16:49:56.540 ,7,1,0.,24.0,0.,24.0
1989-08-26T16:50:20.540 ,7,0,0.,24.0,0.,24.0
1989-08-26T16:50:44.540 ,7,1,0.,24.0,0.,24.0
1989-08-26T16:51:08.540 ,7,0,0.,24.0,0.,24.0
1989-08-26T16:51:32.540 ,6,1,0.,24.0,0.,24.0
1989-08-26T16:51:56.540 ,6,0,0.,24.0,0.,24.0
1989-08-26T16:52:20.540 ,5,1,0.,24.0,0.,24.0
1989-08-26T16:52:44.540 ,5,0,0.,24.0,0.,24.0
1989-08-26T16:53:08.540 ,4,1,0.,24.0,0.,24.0
1989-08-26T16:53:32.540 ,4,0,0.,24.0,0.,24.0
1989-08-26T16:53:56.540 ,3,1,0.,24.0,0.,24.0
1989-08-26T16:54:20.540 ,3,0,0.,24.0,0.,24.0
1989-08-26T16:54:44.540 ,2,1,0.,24.0,0.,24.0
1989-08-26T16:55:08.540 ,2,0,0.,24.0,0.,24.0
1989-08-26T16:55:32.540 ,1,1,0.,24.0,0.,24.0
1989-08-26T16:55:56.540 ,1,0,0.,24.0,0.,24.0
1989-08-26T16:56:20.540 ,0,1,0.,24.0,0.,24.0
1989-08-26T16:56:44.540 ,0,0,0.,24.0,0.,24.0
1989-08-26T16:57:08.540 ,0,1,0.,24.0,0.,24.0
1989-08-26T16:57:32.540 ,0,0,0.,24.0,0.,24.0
1989-08-26T16:57:56.540 ,1,1,0.,24.0,0.,24.0
1989-08-26T16:58:20.540 ,1,0,0.,24.0,0.,24.0
1989-08-26T16:58:44.540 ,2,1,0.,24.0,0.,24.0
1989-08-26T16:59:08.540 ,2,0,0.,24.0,0.,24.0
1989-08-26T16:59:32.540 ,3,1,0.,24.0,0.,24.0
1989-08-26T16:59:56.540 ,3,0,0.,24.0,0.,24.0
1989-08-26T17:00:20.540 ,4,1,0.,24.0,0.,24.0
1989-08-26T17:00:44.540 ,4,0,0.,24.0,0.,24.0
1989-08-26T17:01:08.540 ,5,1,0.,24.0,0.,24.0
1989-08-26T17:01:32.540 ,5,0,0.,24.0,0.,24.0
1989-08-26T17:01:56.540 ,6,1,0.,24.0,0.,24.0
1989-08-26T17:02:20.540 ,6,0,0.,24.0,0.,24.0
1989-08-26T17:02:44.540 ,7,1,0.,24.0,0.,24.0
1989-08-26T17:03:08.540 ,7,0,0.,24.0,0.,24.0
1989-08-26T17:03:32.540 ,7,1,0.,24.0,0.,24.0
1989-08-26T17:03:56.540 ,7,0,0.,24.0,0.,24.0
1989-08-26T17:04:20.540 ,6,1,0.,24.0,0.,24.0
1989-08-26T17:04:44.540 ,6,0,0.,24.0,0.,24.0
1989-08-26T17:05:08.540 ,5,1,0.,24.0,0.,24.0
1989-08-26T17:05:32.540 ,5,0,0.,24.0,0.,24.0
1989-08-26T17:05:56.540 ,4,1,0.,24.0,0.,24.0
1989-08-26T17:06:20.540 ,4,0,0.,24.0,0.,24.0
1989-08-26T17:06:44.540 ,3,1,0.,24.0,0.,24.0
1989-08-26T17:07:08.540 ,3,0,0.,24.0,0.,24.0
1989-08-26T17:07:32.540 ,2,1,0.,24.0,0.,24.0
1989-08-26T17:07:56.540 ,2,0,0.,24.0,0.,24.0
1989-08-26T17:08:20.540 ,1,1,0.,24.0,0.,24.0
1989-08-26T17:08:44.540 ,1,0,0.,24.0,0.,24.0
1989-08-26T17:09:08.540 ,0,1,0.,24.0,0.,24.0
1989-08-26T17:09:32.540 ,0,0,0.,24.0,0.,24.0
1989-08-26T17:09:56.540 ,0,1,0.,24.0,0.,24.0
1989-08-26T17:10:20.540 ,0,0,0.,24.0,0.,24.0
1989-08-26T17:10:44.540 ,1,1,0.,24.0,0.,24.0
1989-08-26T17:11:08.540 ,1,0,0.,24.0,0.,24.0
1989-08-26T17:11:32.540 ,2,1,0.,24.0,0.,24.0
1989-08-26T17:11:56.540 ,2,0,0.,24.0,0.,24.0
1989-08-26T17:12:20.540 ,3,1,0.,24.0,0.,24.0
1989-08-26T17:12:44.540 ,3,0,0.,24.0,0.,24.0
1989-08-26T17:13:08.540 ,4,1,0.,24.0,0.,24.0
1989-08-26T17:13:32.540 ,4,0,0.,24.0,0.,24.0
1989-08-26T17:13:56.540 ,5,1,0.,24.0,0.,24.0
1989-08-26T17:14:20.540 ,5,0,0.,24.0,0.,24.0
1989-08-26T17:14:44.540 ,6,1,0.,24.0,0.,24.0
1989-08-26T17:15:08.540 ,6,0,0.,24.0,0.,24.0
1989-08-26T17:15:32.540 ,7,1,0.,24.0,0.,24.0
1989-08-26T17:15:56.540 ,7,0,0.,24.0,0.,24.0
1989-08-26T17:16:20.540 ,7,1,0.,24.0,0.,24.0
1989-08-26T17:16:44.540 ,7,0,0.,24.0,0.,24.0
1989-08-26T17:17:08.540 ,6,1,0.,24.0,0.,24.0
1989-08-26T17:17:32.540 ,6,0,0.,24.0,0.,24.0
1989-08-26T17:17:56.540 ,5,1,0.,24.0,0.,24.0
1989-08-26T17:18:20.540 ,5,0,0.,24.0,0.,24.0
1989-08-26T17:18:44.540 ,4,1,0.,24.0,0.,24.0
1989-08-26T17:19:08.540 ,4,0,0.,24.0,0.,24.0
1989-08-26T17:19:32.540 ,3,1,0.,24.0,0.,24.0
1989-08-26T17:19:56.540 ,3,0,0.,24.0,0.,24.0
1989-08-26T17:20:20.540 ,2,1,0.,24.0,0.,24.0
1989-08-26T17:20:44.540 ,2,0,0.,24.0,0.,24.0
1989-08-26T17:21:08.540 ,1,1,0.,24.0,0.,24.0
1989-08-26T17:21:32.540 ,1,0,0.,24.0,0.,24.0
1989-08-26T17:21:56.540 ,0,1,0.,24.0,0.,24.0
1989-08-26T17:22:20.540 ,0,0,0.,24.0,0.,24.0
1989-08-26T17:22:44.540 ,0,1,0.,24.0,0.,24.0
1989-08-26T17:23:08.540 ,0,0,0.,24.0,0.,24.0
1989-08-26T17:23:32.540 ,1,1,0.,24.0,0.,24.0
1989-08-26T17:23:56.540 ,1,0,0.,24.0,0.,24.0
1989-08-26T17:24:20.540 ,2,1,0.,24.0,0.,24.0
1989-08-26T17:24:44.540 ,2,0,0.,24.0,0.,24.0
1989-08-26T17:25:08.540 ,3,1,0.,24.0,0.,24.0
1989-08-26T17:25:32.540 ,3,0,0.,24.0,0.,24.0
1989-08-26T17:25:56.540 ,4,1,0.,24.0,0.,24.0
1989-08-26T17:26:20.540 ,4,0,0.,24.0,0.,24.0
1989-08-26T17:26:44.540 ,5,1,0.,24.0,0.,24.0
1989-08-26T17:27:08.540 ,5,0,0.,24.0,0.,24.0
1989-08-26T17:27:32.540 ,6,1,0.,24.0,0.,24.0
1989-08-26T17:27:56.540 ,6,0,0.,24.0,0.,24.0
1989-08-26T17:28:20.540 ,7,1,0.,24.0,0.,24.0
1989-08-26T17:28:44.540 ,7,0,0.,24.0,0.,24.0
1989-08-26T17:29:08.540 ,7,1,0.,24.0,0.,24.0
1989-08-26T17:29:32.540 ,7,0,0.,24.0,0.,24.0
1989-08-26T17:29:56.540 ,6,1,0.,24.0,0.,24.0
1989-08-26T17:30:20.540 ,6,0,0.,24.0,0.,24.0
1989-08-26T17:30:44.540 ,5,1,0.,24.0,0.,24.0
1989-08-26T17:31:08.540 ,5,0,0.,24.0,0.,24.0
1989-08-26T17:31:32.540 ,4,1,0.,24.0,0.,24.0
1989-08-26T17:31:56.540 ,4,0,0.,24.0,0.,24.0
1989-08-26T17:32:20.540 ,3,1,0.,24.0,0.,24.0
1989-08-26T17:32:44.540 ,3,0,0.,24.0,0.,24.0
1989-08-26T17:33:08.540 ,2,1,0.,24.0,0.,24.0
1989-08-26T17:33:32.540 ,2,0,0.,24.0,0.,24.0
1989-08-26T17:33:56.540 ,1,1,0.,24.0,0.,24.0
1989-08-26T17:34:20.540 ,1,0,0.,24.0,0.,24.0
1989-08-26T17:34:44.540 ,0,1,0.,24.0,0.,24.0
1989-08-26T17:35:08.540 ,0,0,0.,24.0,0.,24.0
1989-08-26T17:35:32.540 ,0,1,0.,24.0,0.,24.0
1989-08-26T17:35:56.540 ,0,0,0.,24.0,0.,24.0
1989-08-26T17:36:20.540 ,1,1,0.,24.0,0.,24.0
1989-08-26T17:36:44.540 ,1,0,0.,24.0,0.,24.0
1989-08-26T17:37:08.540 ,2,1,0.,24.0,0.,24.0
1989-08-26T17:37:32.540 ,2,0,0.,24.0,0.,24.0
1989-08-26T17:37:56.540 ,3,1,0.,24.0,0.,24.0
1989-08-26T17:38:20.540 ,3,0,0.,24.0,0.,24.0
1989-08-26T17:38:44.540 ,4,1,0.,24.0,0.,24.0
1989-08-26T17:39:08.540 ,4,0,0.,24.0,0.,24.0
1989-08-26T17:39:32.540 ,5,1,0.,24.0,0.,24.0
1989-08-26T17:39:56.540 ,5,0,0.,24.0,0.,24.0
1989-08-26T17:40:20.540 ,6,1,0.,24.0,0.,24.0
1989-08-26T17:40:44.540 ,6,0,0.,24.0,0.,24.0
1989-08-26T17:41:08.540 ,7,1,0.,24.0,0.,24.0
1989-08-26T17:41:32.540 ,7,0,0.,24.0,0.,24.0
1989-08-26T17:41:56.540 ,7,1,0.,24.0,0.,24.0
1989-08-26T17:42:20.540 ,7,0,0.,24.0,0.,24.0
1989-08-26T17:42:44.540 ,6,1,0.,24.0,0.,24.0
1989-08-26T17:43:08.540 ,6,0,0.,24.0,0.,24.0
1989-08-26T17:43:32.540 ,5,1,0.,24.0,0.,24.0
1989-08-26T17:43:56.540 ,5,0,0.,24.0,0.,24.0
1989-08-26T17:44:20.540 ,4,1,0.,24.0,0.,24.0
1989-08-26T17:44:44.540 ,4,0,0.,24.0,0.,24.0
1989-08-26T17:45:08.530 ,3,1,0.,24.0,0.,24.0
1989-08-26T17:45:32.530 ,3,0,0.,24.0,0.,24.0
1989-08-26T17:45:56.530 ,2,1,0.,24.0,0.,24.0
1989-08-26T17:46:20.530 ,2,0,0.,24.0,0.,24.0
1989-08-26T17:46:44.530 ,1,1,0.,24.0,0.,24.0
1989-08-26T17:47:08.530 ,1,0,0.,24.0,0.,24.0
1989-08-26T17:47:32.530 ,0,1,0.,24.0,0.,24.0
1989-08-26T17:47:56.530 ,0,0,0.,24.0,0.,24.0
1989-08-26T17:48:20.530 ,0,1,0.,24.0,0.,24.0
1989-08-26T17:48:44.530 ,0,0,0.,24.0,0.,24.0
1989-08-26T17:49:08.530 ,1,1,0.,24.0,0.,24.0
1989-08-26T17:49:32.530 ,1,0,0.,24.0,0.,24.0
1989-08-26T17:49:56.530 ,2,1,0.,24.0,0.,24.0
1989-08-26T17:50:20.530 ,2,0,0.,24.0,0.,24.0
1989-08-26T17:50:44.530 ,3,1,0.,24.0,0.,24.0
1989-08-26T17:51:08.530 ,3,0,0.,24.0,0.,24.0
1989-08-26T17:51:32.530 ,4,1,0.,24.0,0.,24.0
1989-08-26T17:51:56.530 ,4,0,0.,24.0,0.,24.0
1989-08-26T17:52:20.530 ,5,1,0.,24.0,0.,24.0
1989-08-26T17:52:44.530 ,5,0,0.,24.0,0.,24.0
1989-08-26T17:53:08.530 ,6,1,0.,24.0,0.,24.0
1989-08-26T17:53:32.530 ,6,0,0.,24.0,0.,24.0
1989-08-26T17:53:56.530 ,7,1,0.,24.0,0.,24.0
1989-08-26T17:54:20.530 ,7,0,0.,24.0,0.,24.0
1989-08-26T17:54:44.530 ,7,1,0.,24.0,0.,24.0
1989-08-26T17:55:08.530 ,7,0,0.,24.0,0.,24.0
1989-08-26T17:55:32.530 ,6,1,0.,24.0,0.,24.0
1989-08-26T17:55:56.530 ,6,0,0.,24.0,0.,24.0
1989-08-26T17:56:20.530 ,5,1,0.,24.0,0.,24.0
1989-08-26T17:56:44.530 ,5,0,0.,24.0,0.,24.0
1989-08-26T17:57:08.530 ,4,1,0.,24.0,0.,24.0
1989-08-26T17:57:32.530 ,4,0,0.,24.0,0.,24.0
1989-08-26T17:57:56.530 ,3,1,0.,24.0,0.,24.0
1989-08-26T17:58:20.530 ,3,0,0.,24.0,0.,24.0
1989-08-26T17:58:44.530 ,2,1,0.,24.0,0.,24.0
1989-08-26T17:59:08.530 ,2,0,0.,24.0,0.,24.0
1989-08-26T17:59:32.530 ,1,1,0.,24.0,0.,24.0
1989-08-26T17:59:56.530 ,1,0,0.,24.0,0.,24.0
1989-08-26T18:00:20.530 ,0,1,0.,24.0,0.,24.0
